Simultaneous Nadir Overpasses (SNOs) Predictions

Prediction of SNOs between AQUA and LANDSAT-8 Satellite Orbit:

Table of predicted SNOs for the next 14.0 days since TLE Epoch: 1/18/2025
Index Date (AQUA) Time (AQUA) Lat,Lon (AQUA) SZA (AQUA ) Date (LANDSAT-8) Time (LANDSAT-8) Lat,Lon (LANDSAT-8) SZA (LANDSAT-8 ) Distance(km) Time Diff (sec)
1 01/18/2025 03:50:34 74.75, 126.98 95.17 01/18/2025 03:51:36 74.75, 126.92 95.17 1.86 62
2 01/18/2025 04:39:52 -74.75, -65.34 84.84 01/18/2025 04:41:03 -74.77, -65.39 84.82 2.89 71
3 01/18/2025 05:29:16 74.92, 101.86 95.33 01/18/2025 05:30:26 74.90, 102.59 95.32 21.26 70
4 01/18/2025 06:18:41 -75.27, -91.41 84.34 01/18/2025 06:19:47 -75.23, -88.92 84.36 70.79 66



Historial Predications of SNOs between AQUA and LANDSAT-8
